Temperature
7 6 5 6 6 7 7 7 7 7 8 7 7 7 7 8 7 7 7 8 8 8 9 9 9 9 9 9 10 10 10 10 10 10 10 10 10 10 10 10 10 10 9 9
5 5 6 7 7 7 7 7 6 6 7 7 6 6 7 7 7 7 7 7 8 8 8 8 9 9 9 9 9 9 9 9 9 9 9 9 9 9 9 9 9 9 9 9
6 6 7 7 7 7 7 6 6 6 6 7 6 6 6 7 7 7 7 7 7 7 7 8 8 8 8 8 8 9 9 9 9 9 9 9 9 9 9 8 9 9 9 9
5 6 7 7 7 7 6 7 7 7 6 5 6 5 6 6 6 6 6 6 7 7 7 7 7 8 8 8 8 8 8 8 8 8 8 8 8 8 8 8 8 8 8 8
5 6 6 6 6 7 6 6 6 6 5 4 5 5 5 5 5 5 5 6 6 7 7 7 7 7 7 8 8 8 8 8 8 8 8 8 8 8 8 8 8 8 8 8
5 6 6 6 6 6 6 6 5 4 3 4 5 4 5 4 5 5 5 5 6 6 6 6 6 7 7 7 7 7 7 7 7 7 7 7 7 7 7 7 7 7 7 7
5 5 6 6 6 6 5 4 4 4 3 4 5 5 5 5 5 5 5 5 5 6 6 6 6 6 7 7 7 7 7 7 7 7 7 7 6 6 6 6 6 6 6 6
4 4 5 5 5 5 5 4 4 5 4 4 4 4 5 5 5 5 5 5 5 5 5 6 6 6 6 6 6 6 6 6 6 6 6 6 6 6 6 6 6 6 6 6
3 4 5 5 5 5 5 3 4 3 3 3 3 4 4 5 4 4 4 4 4 4 5 5 5 5 5 6 6 6 6 6 6 6 6 5 5 5 5 5 5 5 5 5
3 3 4 4 5 5 4 4 3 3 4 4 4 4 4 4 4 3 3 3 4 4 4 4 5 5 5 5 5 5 5 5 5 5 5 5 5 5 5 4 4 4 5 5
3 2 2 3 3 4 4 3 3 2 2 4 4 4 4 4 4 3 3 3 3 3 4 4 4 4 5 5 4 5 5 5 5 5 4 4 4 4 4 4 4 4 4 4
2 1 1 2 3 3 3 3 2 3 2 2 2 4 4 3 3 3 3 3 3 3 3 3 3 3 4 4 4 4 4 4 4 4 4 4 4 4 4 4 3 3 3 4
2 1 2 3 3 2 2 2 2 1 1 1 2 3 3 2 2 3 2 3 3 2 2 3 3 3 3 3 3 3 3 3 3 4 4 3 3 3 3 3 3 3 3 3
2 -0 1 3 3 2 1 1 1 1 1 1 1 3 3 2 2 1 2 2 2 2 2 2 2 2 2 2 2 3 3 3 3 3 3 3 3 3 3 3 2 2 3 3
0 -0 -1 -0 1 1 1 1 1 0 0 1 2 1 2 1 1 1 1 2 1 1 1 1 1 1 1 2 2 2 2 2 2 2 2 2 2 2 2 2 2 2 2 2
-2 -1 -1 -0 1 1 0 0 0 0 0 0 1 1 1 1 1 1 1 1 1 1 1 1 1 1 1 1 1 1 1 1 2 2 2 2 2 1 1 1 1 1 2 2
-2 -2 -1 -0 -1 0 1 0 0 -0 -0 0 1 1 0 0 -0 0 0 0 0 0 0 0 0 0 1 1 1 1 1 1 1 1 1 1 1 1 1 1 1 1 1 1
-3 -2 -2 -2 -1 1 2 0 -0 -0 -1 -1 -1 -1 -0 -0 0 0 0 0 0 -0 0 0 0 0 0 0 0 0 0 -0 -0 -0 -0 0 0 -0 -0 -0 0 0 -0 0
-3 -2 -2 -2 -1 -1 1 -0 -1 -1 -1 -1 -2 -1 -0 -0 -0 -0 0 0 0 0 0 0 0 0 -0 -0 -0 -0 -0 -1 -1 -1 -1 -1 -1 -1 -1 -1 -1 -1 -1 -1
-3 -3 -3 -2 -1 1 2 0 -0 -0 -0 -1 -2 -2 -1 -1 -2 -1 -0 -0 -0 -0 -0 -0 -0 -0 -0 -1 -1 -1 -1 -1 -1 -1 -1 -1 -1 -1 -1 -1 -2 -1 -1 -1
-3 -3 -3 -3 -2 -1 -1 -1 -0 0 0 -0 -1 -1 -1 -2 -1 -1 -1 -1 -1 -1 -1 -1 -1 -1 -1 -1 -1 -1 -2 -2 -2 -2 -2 -2 -2 -2 -2 -2 -2 -2 -2 -2
-3 -3 -3 -3 -2 -0 -1 -2 -1 -1 -0 -1 -1 -1 -1 -1 -1 -1 -1 -1 -1 -1 -1 -1 -1 -1 -1 -2 -2 -2 -2 -2 -2 -2 -2 -2 -2 -2 -2 -2 -2 -2 -2 -2
-3 -3 -3 -2 -1 -1 -1 -1 -0 -0 -1 -1 -1 -1 -1 -1 -1 -1 -1 -1 -2 -2 -1 -2 -2 -2 -2 -2 -2 -2 -3 -3 -3 -3 -3 -3 -3 -3 -3 -3 -3 -3 -3 -2
-3 -3 -4 -4 -3 -2 -1 -1 -0 -1 -1 -1 -1 -1 -1 -2 -2 -2 -2 -2 -2 -2 -2 -2 -2 -2 -2 -3 -3 -3 -3 -3 -3 -3 -3 -3 -3 -3 -3 -3 -3 -3 -3 -3
-3 -4 -4 -4 -4 -2 -1 -0 -0 -1 -1 -1 -1 -2 -2 -2 -2 -2 -2 -2 -2 -2 -3 -3 -3 -3 -3 -3 -3 -3 -3 -4 -4 -4 -4 -4 -4 -4 -4 -4 -4 -4 -4 -4
-4 -4 -3 -2 -2 -3 -2 -1 -1 -2 -2 -2 -2 -2 -2 -2 -2 -2 -3 -3 -3 -3 -3 -3 -3 -3 -3 -3 -4 -4 -4 -4 -4 -4 -4 -4 -4 -4 -4 -4 -4 -4 -4 -4
Wind_Speed
1 2 3 5 6 5 3 4 6 7 5 4 6 9 10 6 4 5 4 3 3 4 4 2 2 2 1 1 2 3 2 3 2 2 3 3 3 3 3 3 4 4 4 4
3 2 5 5 3 3 3 3 4 5 3 3 5 9 8 4 4 5 4 4 4 4 4 3 2 1 1 1 2 2 3 3 3 3 3 3 3 3 3 3 3 4 5 5
3 4 3 1 0 0 2 3 3 4 5 3 3 7 4 2 2 2 3 4 4 4 4 4 3 2 2 2 3 3 3 4 4 4 2 2 1 1 2 2 3 3 4 4
1 3 1 0 1 1 3 3 3 2 2 3 1 4 6 4 4 4 5 4 3 4 4 4 4 3 4 4 3 3 3 3 3 4 4 5 3 4 4 3 3 2 3 3
2 1 1 1 3 2 3 2 2 2 1 2 1 2 7 3 5 7 6 5 4 3 3 5 5 5 4 3 3 3 3 2 2 3 5 5 4 4 2 2 3 3 3 3
2 2 1 2 2 1 1 3 4 4 4 2 4 4 7 3 5 6 6 6 4 4 3 3 3 3 2 2 2 2 2 2 2 3 4 4 5 4 3 4 4 3 3 3
4 3 2 1 2 4 3 4 4 5 3 5 2 3 7 5 4 4 6 6 4 3 2 2 2 2 2 2 2 2 2 3 3 3 4 4 5 5 6 5 5 4 3 3
1 4 3 1 0 1 1 3 4 3 4 5 3 5 6 4 4 3 3 3 3 3 3 3 2 2 2 2 2 2 3 3 3 3 4 4 5 4 4 5 5 5 4 4
1 4 3 3 1 2 1 2 3 3 1 3 5 6 7 3 5 5 5 5 6 5 5 5 4 3 3 2 2 2 2 2 2 3 3 3 4 4 4 4 4 4 4 3
2 3 4 3 2 2 2 3 3 3 1 4 6 5 4 5 6 5 5 6 6 6 6 5 4 4 3 2 2 1 1 1 2 2 3 3 3 4 4 4 4 4 4 4
2 2 4 3 1 2 1 1 2 2 3 3 4 6 3 3 3 3 4 4 5 5 5 5 5 4 3 3 2 1 1 1 1 2 2 2 2 2 2 3 4 4 4 4
1 2 3 5 3 1 2 3 3 2 3 3 3 7 3 3 3 3 5 6 6 6 6 5 4 4 3 3 3 2 2 2 2 1 1 1 1 1 2 3 3 3 3 4
2 3 2 5 3 3 1 1 1 2 2 3 4 7 3 4 5 6 6 7 7 7 6 5 4 4 3 3 3 3 2 2 2 1 0 0 0 1 2 2 2 2 2 3
2 3 5 6 5 3 4 4 2 3 3 5 8 10 9 9 9 9 8 8 7 7 6 5 5 4 4 3 3 3 3 3 2 2 0 0 1 1 1 1 1 2 2 2
3 2 4 6 6 4 6 7 5 6 7 7 9 9 12 10 9 9 7 7 8 7 7 6 5 4 4 4 3 3 3 3 2 1 1 1 1 1 1 1 1 0 0 1
2 1 1 5 4 4 7 8 8 8 7 8 10 13 10 9 7 7 7 6 7 8 7 6 5 4 4 4 4 3 3 3 2 1 1 1 1 2 1 1 1 1 1 1
1 2 0 4 5 4 6 7 7 6 6 6 9 10 8 7 7 6 6 6 7 7 7 5 5 4 4 4 3 3 3 2 2 2 2 2 2 1 1 1 2 1 0 0
4 2 1 2 3 4 6 1 4 5 6 6 6 7 7 7 7 5 5 5 6 6 6 5 4 4 4 3 2 2 2 2 2 2 2 2 2 1 1 1 1 1 1 0
4 4 2 1 2 7 7 3 3 4 5 4 6 7 6 6 4 4 4 4 4 4 5 4 3 3 3 3 2 2 2 2 2 2 2 2 1 1 1 1 1 1 1 1
3 3 3 2 2 6 5 2 1 2 5 3 3 5 4 3 3 5 6 6 5 5 4 4 3 3 3 3 3 3 3 3 2 2 2 2 1 1 1 1 1 1 1 1
1 1 3 4 5 7 5 3 1 2 5 4 2 3 3 3 5 5 5 5 4 4 4 3 3 3 3 3 3 3 3 3 3 2 2 2 2 1 1 1 1 1 1 1
6 4 5 4 4 7 2 3 4 5 3 3 4 4 4 6 6 5 4 3 4 4 4 3 3 3 4 3 3 3 3 3 3 3 3 3 3 2 2 1 1 1 0 1
6 7 5 7 7 3 2 4 4 3 3 4 4 5 5 5 5 4 4 3 3 3 3 2 2 3 4 4 3 2 3 3 3 3 3 3 3 3 2 1 1 1 1 1
4 3 3 4 7 6 5 4 4 4 5 6 5 6 5 5 5 4 4 3 3 2 2 2 2 3 4 4 4 3 3 2 2 3 3 3 3 3 3 2 1 1 1 2
5 3 3 5 6 6 5 5 5 6 6 6 6 5 5 5 5 4 4 4 3 2 2 1 1 2 3 4 4 4 3 2 2 2 3 3 3 3 3 2 2 2 2 2
4 5 5 6 5 4 7 5 4 5 7 7 6 6 4 4 4 4 4 3 2 1 1 1 1 2 2 3 4 4 3 2 2 2 3 3 2 2 2 2 2 3 3 4
Wind_Direction
57 89 201 216 211 210 222 236 263 271 284 281 258 274 280 270 255 257 266 269 270 272 269 252 215 212 224 203 187 197 176 194 177 176 185 192 195 187 182 191 184 180 179 175
47 247 238 239 231 217 230 255 277 293 307 296 284 284 279 260 240 241 247 259 263 274 286 277 249 198 214 238 224 201 188 201 193 192 195 197 196 189 186 196 195 192 187 188
187 243 264 211 109 242 265 226 245 273 323 328 323 306 292 298 262 269 268 263 260 257 264 270 263 234 204 229 239 236 212 202 197 189 168 161 156 177 190 198 205 207 199 203
249 280 288 243 255 199 267 242 242 276 336 304 359 294 282 285 300 297 298 303 285 272 254 249 245 239 226 227 228 230 219 206 201 186 173 175 196 206 212 206 208 217 216 214
276 283 311 246 249 224 233 271 286 291 173 316 286 233 281 304 290 290 293 297 298 285 246 240 243 238 237 225 219 222 209 205 204 193 187 185 203 224 208 190 196 213 224 222
260 284 225 233 282 242 240 22 30 45 70 300 241 196 279 264 266 295 304 303 304 300 272 258 260 252 248 240 231 223 197 206 195 185 186 188 201 213 206 206 206 213 223 222
338 326 327 24 14 10 61 71 24 359 2 258 262 218 256 267 280 277 294 304 300 300 308 305 304 291 276 257 249 237 208 216 205 191 196 199 206 208 212 212 213 213 219 222
356 304 310 358 156 209 190 136 156 214 243 283 300 242 258 279 310 313 312 332 349 339 331 319 303 284 282 273 262 243 227 230 222 204 206 205 211 209 216 212 216 217 223 223
168 273 318 328 324 142 137 175 175 143 248 274 275 285 299 308 342 355 358 359 349 338 331 326 325 321 300 283 266 250 244 244 236 223 215 215 211 210 212 210 209 218 227 227
157 269 296 314 15 14 141 147 105 133 207 269 286 273 267 299 312 334 339 337 336 340 338 329 324 323 315 303 292 287 257 250 244 230 224 229 222 220 218 210 210 213 217 220
111 183 310 345 220 228 105 103 130 147 175 197 272 273 246 259 276 303 309 317 329 329 323 320 322 329 334 344 341 329 313 295 269 247 237 228 235 235 230 221 218 216 214 204
106 131 273 269 270 253 190 185 156 180 244 215 239 271 294 295 289 312 318 327 329 326 323 323 324 334 347 349 344 343 341 314 274 253 228 223 241 228 213 217 221 212 212 210
132 122 352 339 340 360 336 272 193 147 148 196 224 268 319 347 333 329 324 324 324 322 324 328 333 336 340 341 341 346 342 323 311 303 241 209 237 206 201 206 208 201 210 218
103 156 195 221 240 232 268 269 219 164 205 237 240 265 292 310 313 316 315 317 317 316 319 323 325 329 337 343 344 346 344 335 329 338 34 274 283 217 187 192 193 213 217 218
94 203 241 263 270 249 253 256 237 221 221 230 259 263 279 291 295 302 305 314 320 321 324 324 324 328 336 342 344 343 342 341 341 2 24 337 358 35 90 105 113 106 349 282
79 182 274 290 277 258 273 264 244 239 238 247 268 274 279 291 299 303 306 312 314 314 315 318 324 328 331 333 336 342 352 353 12 32 3 15 49 53 81 93 83 70 42 0
151 146 200 283 310 326 283 249 222 229 227 220 245 264 298 310 306 299 302 305 302 307 314 316 316 317 321 327 334 338 340 1 28 35 17 27 54 56 44 79 71 50 37 43
159 154 173 293 4 255 250 251 203 229 252 241 256 278 291 295 296 286 284 286 299 306 312 320 321 323 329 333 347 357 5 29 37 37 28 29 45 41 37 66 64 14 341 352
172 157 152 163 274 280 292 276 189 208 272 249 251 279 301 317 318 304 306 312 299 300 308 311 310 320 337 344 355 15 28 36 41 35 19 7 15 21 27 33 29 354 19 346
83 117 144 164 223 250 263 284 239 128 288 294 263 283 303 345 329 294 312 323 324 327 327 329 344 5 6 355 7 33 26 25 16 7 355 351 10 22 7 345 335 346 357 324
119 136 187 203 235 263 266 278 101 160 270 305 280 286 284 256 252 281 306 319 324 326 334 346 6 12 2 357 16 27 18 3 346 350 360 3 0 354 343 3 349 345 342 348
182 180 198 180 218 260 247 130 180 233 280 293 287 281 274 273 282 290 296 305 319 332 344 354 7 2 0 4 20 18 358 340 351 4 7 360 353 349 5 27 356 339 326 337
202 197 194 198 220 260 203 212 242 254 267 273 274 284 275 276 279 285 288 290 301 312 327 346 2 1 358 0 14 6 338 349 8 14 5 358 355 354 355 3 342 337 338 323
251 198 193 250 267 272 262 258 277 272 265 277 278 279 272 267 271 275 282 292 298 306 319 343 8 5 351 352 360 354 341 3 27 16 359 353 353 351 349 344 339 337 321 301
238 184 212 253 275 299 277 263 272 284 291 294 292 282 268 265 269 269 274 281 285 302 320 350 353 336 333 343 349 348 349 14 23 4 352 349 349 343 342 343 330 312 292 279
211 192 202 240 245 242 269 278 284 289 291 289 290 293 284 261 265 273 273 274 275 288 313 331 333 332 333 340 339 339 342 1 13 354 346 343 337 332 329 328 340 346 331 337
Height
1493 1497 1498 1497 1496 1495 1495 1496 1496 1493 1489 1489 1488 1484 1480 1478 1478 1476 1475 1474 1474 1474 1475 1476 1477 1477 1478 1478 1479 1480 1481 1482 1482 1483 1484 1485 1486 1487 1489 1490 1491 1493 1494 1495
1496 1498 1494 1492 1492 1493 1494 1496 1496 1492 1488 1488 1487 1483 1478 1476 1475 1474 1473 1472 1471 1472 1471 1471 1472 1472 1473 1474 1475 1476 1477 1478 1478 1479 1481 1481 1482 1483 1485 1486 1488 1489 1490 1491
1496 1495 1491 1491 1492 1493 1494 1495 1494 1493 1490 1488 1490 1484 1478 1474 1473 1472 1471 1470 1469 1469 1468 1467 1468 1468 1469 1470 1471 1472 1473 1474 1475 1476 1477 1478 1479 1480 1481 1482 1484 1485 1486 1488
1496 1493 1492 1492 1492 1492 1494 1491 1491 1491 1495 1496 1493 1494 1481 1476 1474 1472 1469 1467 1466 1466 1465 1464 1464 1464 1465 1466 1467 1468 1469 1470 1471 1472 1473 1473 1474 1475 1476 1478 1479 1481 1482 1484
1496 1493 1493 1492 1492 1491 1492 1490 1491 1491 1494 1499 1495 1497 1484 1478 1475 1471 1468 1466 1464 1463 1462 1461 1461 1461 1462 1462 1464 1465 1465 1466 1467 1468 1469 1469 1471 1472 1473 1474 1475 1476 1478 1479
1495 1493 1493 1492 1491 1490 1490 1492 1493 1497 1500 1502 1494 1497 1487 1480 1474 1470 1467 1464 1463 1462 1461 1460 1459 1459 1459 1460 1461 1461 1461 1462 1463 1464 1465 1466 1467 1468 1469 1470 1470 1472 1473 1474
1498 1494 1492 1492 1492 1492 1493 1500 1506 1506 1510 1503 1492 1492 1485 1474 1471 1469 1467 1464 1462 1461 1460 1459 1457 1457 1456 1457 1457 1457 1458 1459 1460 1461 1461 1462 1463 1464 1465 1465 1466 1467 1468 1469
1502 1501 1494 1493 1494 1495 1496 1499 1505 1506 1508 1501 1492 1489 1479 1472 1469 1467 1466 1464 1462 1460 1458 1457 1456 1455 1454 1454 1454 1454 1455 1455 1456 1457 1458 1459 1460 1461 1461 1462 1462 1463 1464 1465
1504 1501 1495 1493 1493 1494 1496 1500 1499 1506 1508 1506 1496 1488 1477 1470 1468 1466 1465 1463 1461 1459 1457 1456 1454 1453 1453 1452 1452 1452 1452 1453 1453 1453 1454 1455 1456 1457 1457 1458 1459 1460 1461 1461
1502 1506 1498 1495 1493 1494 1495 1497 1502 1505 1504 1500 1493 1488 1480 1472 1469 1467 1465 1463 1460 1458 1457 1455 1453 1452 1451 1450 1450 1450 1450 1450 1450 1451 1451 1452 1452 1453 1454 1455 1455 1456 1457 1457
1502 1507 1503 1499 1498 1497 1497 1499 1500 1504 1504 1501 1498 1486 1473 1471 1469 1468 1466 1463 1461 1459 1457 1454 1452 1451 1449 1448 1448 1447 1447 1447 1447 1448 1448 1448 1448 1449 1450 1451 1451 1452 1453 1453
1503 1508 1509 1503 1497 1496 1496 1497 1501 1503 1504 1503 1500 1488 1470 1470 1468 1467 1465 1463 1461 1459 1456 1453 1451 1449 1447 1446 1445 1445 1444 1444 1444 1445 1445 1445 1445 1445 1446 1446 1447 1448 1449 1450
1502 1507 1508 1502 1502 1500 1498 1497 1499 1502 1505 1506 1502 1485 1470 1469 1468 1467 1465 1462 1460 1458 1455 1452 1450 1448 1446 1445 1443 1442 1442 1442 1442 1442 1442 1442 1442 1442 1442 1443 1444 1445 1445 1446
1499 1506 1506 1501 1497 1499 1500 1498 1499 1501 1503 1501 1493 1481 1472 1470 1469 1466 1464 1461 1459 1456 1453 1450 1448 1446 1444 1442 1441 1440 1440 1440 1440 1439 1439 1439 1439 1439 1439 1440 1440 1441 1442 1442
1500 1505 1505 1501 1498 1498 1497 1495 1496 1497 1495 1494 1484 1481 1473 1470 1468 1466 1463 1460 1457 1454 1451 1449 1446 1444 1442 1441 1439 1438 1437 1437 1437 1437 1437 1437 1437 1437 1437 1437 1437 1438 1438 1438
1502 1505 1505 1501 1496 1496 1494 1491 1491 1490 1489 1487 1482 1477 1470 1469 1467 1464 1461 1459 1456 1453 1450 1447 1445 1443 1441 1439 1438 1437 1436 1436 1435 1434 1434 1434 1434 1434 1434 1434 1434 1434 1435 1435
1504 1505 1504 1501 1499 1495 1491 1484 1484 1484 1482 1482 1480 1474 1469 1467 1464 1462 1460 1458 1455 1452 1449 1446 1444 1442 1440 1438 1437 1436 1434 1434 1433 1432 1432 1433 1432 1432 1432 1432 1432 1432 1432 1432
1503 1505 1507 1506 1502 1494 1482 1479 1479 1479 1478 1477 1474 1471 1469 1467 1463 1461 1459 1457 1454 1451 1448 1445 1443 1441 1439 1437 1436 1435 1433 1432 1431 1431 1431 1431 1430 1430 1430 1429 1429 1429 1429 1430
1499 1502 1506 1508 1505 1494 1481 1477 1478 1479 1475 1472 1471 1469 1467 1465 1462 1459 1457 1455 1453 1450 1447 1445 1443 1441 1439 1437 1435 1433 1432 1431 1430 1429 1430 1430 1429 1428 1427 1427 1427 1428 1427 1427
1499 1501 1505 1507 1502 1491 1477 1475 1474 1476 1474 1468 1468 1467 1465 1464 1464 1459 1455 1453 1451 1449 1446 1444 1442 1440 1438 1436 1434 1433 1431 1430 1429 1429 1429 1429 1428 1427 1426 1425 1425 1425 1425 1425
1502 1503 1505 1505 1502 1488 1477 1474 1475 1479 1474 1467 1466 1465 1464 1463 1462 1458 1455 1453 1450 1448 1446 1443 1441 1439 1438 1436 1434 1432 1430 1429 1429 1428 1428 1427 1426 1425 1425 1424 1424 1424 1423 1423
1496 1500 1502 1502 1500 1486 1474 1474 1475 1472 1467 1466 1464 1463 1461 1459 1457 1455 1453 1451 1449 1447 1445 1443 1440 1439 1437 1436 1434 1431 1430 1429 1428 1427 1426 1426 1425 1424 1423 1422 1422 1422 1421 1421
1490 1488 1488 1487 1481 1473 1471 1470 1469 1468 1466 1464 1462 1461 1459 1456 1454 1453 1451 1449 1447 1446 1444 1442 1440 1438 1437 1435 1433 1431 1430 1429 1428 1426 1425 1424 1423 1422 1421 1421 1420 1420 1419 1419
1483 1481 1483 1482 1474 1470 1469 1468 1467 1466 1464 1462 1460 1458 1456 1454 1452 1450 1448 1447 1445 1444 1442 1441 1439 1437 1436 1434 1433 1431 1430 1428 1427 1426 1424 1423 1422 1420 1420 1419 1418 1418 1417 1417
1478 1479 1479 1478 1471 1468 1465 1465 1464 1462 1461 1459 1457 1455 1453 1451 1449 1448 1446 1445 1443 1442 1441 1440 1438 1436 1435 1434 1432 1430 1429 1427 1426 1424 1423 1421 1420 1419 1418 1417 1417 1417 1416 1416
1474 1475 1476 1471 1467 1467 1464 1462 1461 1459 1457 1455 1453 1451 1450 1448 1446 1445 1443 1442 1441 1440 1439 1438 1437 1436 1434 1433 1431 1430 1428 1426 1425 1423 1421 1420 1419 1417 1416 1415 1415 1415 1414 1414